Theta_e
305 305 305 306 307 309 309 312 310 311 310 311 312 316 316 313 311 311 313 307 306 306 306 305 307 311 313 314 316 320 328 331 332 326 327 321 326 322 323 323 327 327 331 331 337
304 304 304 305 306 307 308 309 310 310 311 310 312 314 317 313 311 312 312 309 308 307 307 307 310 313 310 314 316 318 323 328 325 329 328 323 325 324 327 331 334 335 333 335 336
303 302 303 303 304 305 307 308 309 309 310 310 311 313 317 313 313 314 313 312 311 310 309 305 311 314 313 314 316 318 318 319 322 329 327 324 325 324 326 330 331 333 334 335 334
302 301 300 302 302 304 305 307 307 308 308 309 309 312 316 312 315 312 308 309 314 312 310 304 310 314 313 313 314 321 318 318 320 326 328 326 326 326 325 326 325 330 335 335 335
300 299 301 300 302 301 303 305 305 308 307 307 309 311 315 313 312 313 312 313 314 313 310 307 311 312 312 311 314 318 317 317 321 323 325 326 328 326 326 323 323 332 334 336 335
301 301 301 302 302 301 301 304 305 306 306 307 307 310 314 317 314 314 312 312 312 311 313 306 309 310 311 311 311 312 315 317 317 319 323 323 324 324 326 323 326 334 334 334 335
301 301 301 301 301 302 301 302 305 304 306 305 309 308 313 315 313 313 312 311 311 314 309 307 308 312 310 311 310 315 315 315 314 317 321 321 321 321 322 322 329 332 333 333 333
301 301 301 301 301 302 302 301 304 303 305 304 307 308 312 313 312 310 311 311 314 314 313 312 309 315 315 312 314 315 315 314 313 316 318 320 318 316 317 319 323 327 327 330 331
301 301 301 301 301 301 302 302 303 302 305 306 305 308 311 312 313 311 313 314 315 314 314 316 316 314 314 313 315 313 311 314 314 313 319 318 320 317 314 315 317 316 318 323 324
300 300 301 301 301 302 302 302 302 302 303 304 304 307 308 311 313 313 312 312 313 314 314 314 311 313 312 311 312 315 312 313 313 310 316 318 319 316 313 311 312 310 311 310 314
300 300 300 300 301 301 302 301 301 301 302 303 303 306 309 311 312 313 313 312 312 313 310 314 312 313 313 312 309 313 312 310 310 309 312 312 316 318 315 312 312 310 309 308 307
299 300 300 298 299 299 301 301 300 301 302 302 302 304 304 307 312 312 313 312 314 315 314 313 312 308 309 314 315 313 312 309 308 310 311 309 311 312 313 313 312 312 309 308 308
300 299 299 297 298 300 300 301 301 300 302 302 303 302 302 308 311 312 312 313 313 315 314 313 311 310 310 312 316 314 311 309 308 308 307 308 306 307 307 309 310 308 307 307 307
299 299 297 298 298 299 300 299 300 300 294 297 305 304 303 306 310 309 312 313 314 315 315 315 312 312 310 310 313 315 311 311 311 310 310 305 306 303 304 306 306 308 307 307 306
299 299 298 296 297 298 299 299 297 297 289 295 305 304 304 307 308 311 312 312 314 314 314 312 313 313 311 309 311 311 310 312 311 310 310 308 306 303 303 303 301 301 304 306 307
299 299 298 298 298 296 298 299 298 293 290 295 305 305 306 307 308 309 312 310 310 313 313 311 310 311 311 308 308 307 309 309 308 309 312 308 308 306 304 303 303 302 302 302 302
300 298 298 297 298 297 296 297 297 288 289 297 304 304 305 307 307 309 310 313 314 314 314 313 312 310 308 311 309 308 308 306 307 304 309 306 307 306 304 302 302 303 302 301 300
300 298 298 296 295 298 296 296 291 281 282 295 301 301 306 306 306 309 310 311 311 309 309 312 314 312 310 310 310 310 309 308 309 308 306 306 308 306 305 305 304 302 301 301 302
299 298 298 296 296 297 296 297 292 283 294 300 299 300 304 305 304 306 306 309 308 310 308 310 311 308 309 309 309 310 311 307 310 304 307 306 305 303 304 304 304 304 304 303 302
299 298 296 298 299 297 295 293 288 293 298 299 298 301 303 301 305 303 303 304 308 308 308 310 310 308 309 310 310 309 308 311 308 303 304 308 307 305 305 306 305 304 304 302 304
297 291 297 299 298 295 293 285 287 293 298 299 300 296 301 300 300 300 303 301 301 304 307 309 309 310 310 311 312 311 311 309 308 306 307 306 304 300 304 304 305 304 304 303 304
294 291 298 298 292 292 292 288 295 297 292 294 298 300 299 299 299 299 300 301 299 303 308 308 309 311 310 309 309 311 312 310 312 310 309 307 305 302 303 304 303 303 303 304 305
292 296 298 297 290 287 285 292 296 296 297 292 294 298 298 299 295 299 301 299 300 301 302 302 310 311 309 308 310 313 311 311 310 307 309 308 307 303 302 306 304 305 305 301 305
290 294 296 296 287 286 283 286 291 296 296 296 292 294 298 298 298 297 300 301 303 302 302 302 304 305 307 306 305 313 312 312 312 314 312 309 308 305 304 304 304 305 306 304 303
288 287 289 293 296 286 290 291 295 294 291 297 297 295 292 292 299 299 299 300 301 302 304 303 302 303 304 304 304 305 307 309 313 313 313 312 310 308 304 303 302 301 303 304 303
291 292 288 290 284 289 291 289 296 294 295 292 294 297 294 292 296 298 299 299 299 300 303 303 300 303 302 304 305 303 302 302 303 307 312 311 310 308 306 303 304 303 300 302 302
294 294 291 294 292 290 290 289 296 296 296 296 297 297 298 297 295 294 297 298 299 300 300 301 302 299 299 304 303 296 300 302 302 306 308 311 310 308 308 307 305 303 301 301 302
Wind_Speed
17 15 14 14 15 18 17 15 15 15 15 17 14 13 12 11 13 11 8 8 6 10 10 13 10 7 3 3 3 2 4 3 4 6 3 6 5 3 1 6 1 3 6 5 28
16 15 15 15 15 17 18 14 14 12 14 14 14 12 11 11 14 12 13 11 11 10 9 4 3 5 1 1 2 3 3 9 3 2 3 4 5 9 5 4 1 1 3 20 31
15 13 13 14 15 16 16 15 13 11 11 12 11 12 10 8 5 5 6 14 11 9 10 5 2 1 3 1 2 4 4 4 2 2 2 6 4 1 8 4 6 10 10 16 22
12 13 13 14 15 17 16 15 13 12 11 11 11 10 9 4 7 1 2 3 2 3 7 4 1 4 4 5 3 3 5 3 1 0 1 5 1 2 6 6 7 10 20 18 14
13 16 16 17 15 18 18 16 15 12 11 11 9 10 6 4 7 6 2 0 2 1 7 4 5 5 6 5 5 4 5 3 1 3 2 0 2 3 6 3 3 11 12 17 16
14 18 17 19 19 18 18 17 16 13 11 11 10 10 6 8 9 13 7 6 3 6 4 4 5 4 3 4 6 6 6 3 2 3 1 1 2 1 5 3 6 13 13 12 14
15 17 17 18 19 18 17 17 17 15 12 10 10 10 7 6 6 9 8 7 6 3 2 7 3 2 4 2 3 3 4 1 5 5 4 3 5 8 2 4 8 10 12 11 12
18 19 18 17 17 17 16 17 17 15 12 12 10 7 6 8 12 8 6 6 6 5 4 4 6 1 2 1 3 5 3 4 2 7 4 8 7 10 8 6 7 8 7 8 10
18 20 17 16 16 17 17 16 17 15 10 8 6 4 6 3 9 12 6 2 2 3 3 2 3 2 1 6 3 3 4 4 4 8 4 6 6 7 5 9 9 8 8 8 8
17 16 14 15 16 18 17 15 11 10 7 5 5 2 6 4 6 14 11 4 1 2 1 2 3 2 1 4 10 6 4 4 7 6 6 7 9 6 3 6 9 8 9 8 8
15 15 14 13 15 13 10 3 4 2 5 6 4 5 3 2 7 13 12 7 2 2 4 1 3 9 8 5 1 6 3 5 2 2 3 7 7 15 8 5 8 8 8 8 9
12 14 13 12 13 9 8 3 2 2 5 12 10 6 12 6 3 4 14 6 5 5 3 2 8 3 1 2 1 3 4 4 2 1 4 6 8 12 9 7 9 13 9 10 6
11 11 11 10 10 2 8 6 3 7 3 4 6 6 5 6 4 5 12 5 5 7 6 4 2 7 6 4 7 4 5 4 2 3 0 4 8 7 8 8 9 8 9 7 11
9 8 9 8 5 5 3 11 1 8 3 5 5 7 5 5 5 8 14 7 4 13 5 6 5 3 3 6 7 11 6 3 1 3 4 2 9 7 7 9 8 13 11 13 13
8 5 7 8 4 5 3 8 5 2 3 4 4 2 7 9 4 4 11 2 8 7 6 6 5 5 7 6 7 5 6 7 5 3 3 2 3 6 2 6 7 12 16 17 20
8 5 4 3 3 6 4 6 4 4 4 3 2 4 6 5 3 2 4 1 2 6 1 5 2 5 6 4 12 8 5 6 5 3 6 8 6 5 6 6 6 7 12 15 12
10 6 4 4 1 3 7 2 3 4 4 4 3 4 6 5 9 4 6 12 5 6 9 5 6 2 3 5 2 4 8 2 2 0 8 2 7 19 4 7 8 10 10 8 7
13 8 5 7 6 1 8 2 4 2 5 4 1 5 8 6 8 3 4 10 12 1 3 7 4 11 6 6 6 12 11 6 7 5 3 2 9 6 11 11 8 8 9 8 6
12 9 4 2 5 3 3 3 4 5 4 6 1 4 5 4 4 4 5 7 9 8 5 5 5 1 5 4 9 5 12 5 4 2 2 5 7 8 9 10 8 11 10 13 4
15 6 1 4 6 8 3 3 2 3 5 5 4 4 5 8 4 5 5 5 3 10 4 1 2 5 5 2 6 6 7 6 1 2 4 5 5 6 5 8 9 8 8 8 4
12 3 4 8 8 3 2 5 4 4 2 4 3 4 2 4 3 6 7 6 10 8 4 5 3 2 6 9 15 4 5 4 5 5 5 2 6 7 8 7 6 7 5 6 6
5 2 3 4 3 2 1 4 4 2 4 2 1 1 2 3 2 4 3 3 6 4 6 2 4 9 9 2 2 15 18 18 7 11 7 2 6 4 5 2 2 6 7 4 3
3 2 4 3 3 2 3 3 2 1 1 2 3 2 2 1 2 3 6 7 8 2 2 5 5 7 1 3 2 5 14 14 17 3 13 6 9 3 7 2 3 6 7 4 1
3 3 1 2 2 5 2 3 3 1 1 2 1 3 3 2 2 3 4 3 8 5 10 6 3 5 4 2 4 4 7 19 13 12 18 15 20 7 4 5 4 5 4 4 1
3 2 3 3 2 3 2 3 1 2 2 1 2 3 4 2 3 2 2 5 2 4 8 5 4 4 2 7 2 4 8 6 16 18 10 20 22 15 7 8 5 7 4 1 4
3 3 2 2 2 5 3 3 3 4 3 3 3 2 4 5 5 8 2 2 4 3 5 1 2 4 4 3 1 6 13 12 9 9 17 23 26 15 4 5 6 9 7 8 9
1 3 4 2 2 3 3 5 3 2 3 3 4 1 3 7 7 10 6 5 4 2 2 1 1 0 4 3 3 6 9 12 5 7 9 18 26 16 15 10 9 9 8 10 10
Wind_Direction
305 302 314 321 323 316 309 307 293 287 280 281 280 281 273 293 294 282 236 242 207 263 292 301 293 298 319 355 16 104 78 181 195 155 238 158 150 178 103 125 120 183 155 206 162
299 303 302 313 313 321 314 304 303 296 285 274 281 289 268 291 298 264 251 247 255 262 287 287 276 329 331 355 29 99 142 199 211 186 242 204 169 159 138 143 155 74 19 141 155
300 304 308 305 316 311 318 311 307 301 302 279 277 279 262 288 301 260 235 231 253 257 261 251 273 257 217 75 189 159 199 204 205 238 242 172 164 210 128 221 203 182 159 151 154
302 292 289 306 303 303 308 314 298 297 292 301 267 277 255 233 234 327 148 134 247 264 233 203 195 168 177 186 184 167 209 218 238 326 21 150 173 202 188 215 193 173 163 159 168
308 310 289 287 300 296 296 302 295 298 293 289 294 277 235 220 246 300 255 167 280 256 225 188 165 156 185 196 146 186 190 205 93 350 19 109 146 181 252 295 137 135 161 174 181
317 307 303 296 297 294 287 291 297 281 280 294 303 293 250 231 256 258 239 254 250 220 221 184 218 194 191 206 169 205 175 183 246 240 279 225 267 62 252 124 146 157 179 185 191
314 309 304 299 294 288 284 281 282 275 273 283 302 307 257 242 219 223 235 246 233 247 233 215 237 161 144 170 222 137 149 310 202 194 223 136 277 231 214 149 167 189 190 193 204
315 306 299 294 293 291 282 275 270 271 276 275 294 305 257 260 235 217 224 243 225 248 256 233 227 198 188 261 40 129 100 175 253 154 231 137 251 256 201 150 197 210 217 214 215
319 312 297 291 291 289 280 276 270 263 254 270 282 224 265 266 221 205 195 198 177 214 252 186 168 202 127 131 85 333 193 181 310 202 144 181 240 245 173 188 224 224 226 228 241
321 323 306 301 294 289 271 271 266 263 258 246 247 311 256 218 201 212 202 163 56 124 61 67 57 164 68 170 196 169 174 199 187 221 200 204 238 246 187 181 223 219 242 241 238
322 324 317 309 298 295 256 256 209 263 229 197 201 250 1 264 201 212 197 149 107 78 180 214 157 209 197 228 173 141 179 191 222 270 178 243 237 247 223 212 230 233 231 250 248
312 328 323 322 316 303 227 220 243 2 286 238 255 267 284 311 288 215 184 164 156 177 148 117 237 177 184 230 315 139 167 199 287 225 175 291 264 256 230 222 212 229 237 228 231
294 319 328 327 326 278 180 175 137 355 239 271 207 219 211 173 260 208 177 162 162 176 190 192 171 179 171 177 206 204 186 168 144 352 170 329 275 232 252 226 231 236 231 233 224
282 306 332 339 338 330 213 225 310 342 58 266 205 238 168 155 268 199 193 168 178 201 152 244 249 120 186 220 184 230 164 165 250 71 242 33 277 264 245 240 224 236 236 239 238
259 285 310 335 305 308 334 175 195 7 53 259 184 340 158 171 159 221 185 140 185 159 175 215 181 170 202 216 170 228 154 191 164 147 17 208 307 263 276 260 247 235 241 241 242
237 249 274 294 258 309 339 171 84 42 260 345 225 159 143 186 203 117 145 15 91 161 255 219 168 181 199 162 181 146 89 58 55 96 257 211 183 214 200 204 248 244 239 242 236
220 216 214 293 342 4 343 60 88 135 310 322 11 339 178 174 207 176 182 193 168 170 206 180 236 264 157 127 156 137 135 33 11 2 235 289 189 247 225 238 224 239 267 254 238
214 207 216 282 292 1 64 41 87 243 245 310 252 319 186 158 213 221 170 205 211 162 141 194 228 187 182 192 169 202 182 159 182 203 234 166 232 248 230 264 252 254 260 286 246
189 192 252 342 244 160 62 23 214 200 266 323 311 74 348 144 156 119 223 218 214 192 192 178 245 271 160 158 158 188 214 162 107 46 65 216 289 291 257 266 252 251 256 254 261
154 154 325 338 160 127 83 245 209 225 314 355 42 17 36 21 56 205 181 346 232 202 146 263 267 211 201 128 249 176 143 200 117 143 257 257 270 242 320 272 270 274 259 263 210
134 77 2 121 128 60 175 233 273 245 353 28 339 36 125 120 53 352 1 58 6 333 301 167 205 310 120 203 202 172 194 191 160 163 200 266 260 220 248 257 263 273 297 270 228
114 69 156 177 62 73 150 197 227 297 7 356 146 330 207 171 145 139 11 353 284 75 329 286 227 232 222 156 213 228 212 203 200 212 237 280 260 276 192 47 293 313 291 256 202
87 83 165 22 124 293 340 299 290 282 276 17 353 343 15 3 39 152 201 222 227 83 56 11 243 208 225 339 125 243 229 223 224 43 224 208 252 232 294 7 340 340 348 318 69
101 124 83 40 122 133 132 285 295 322 317 121 129 31 339 298 190 190 174 211 178 177 161 140 314 23 280 353 338 203 235 225 220 223 234 229 249 238 321 315 357 331 7 22 344
45 231 198 190 203 95 122 184 242 299 349 176 321 219 151 328 326 276 349 2 227 245 171 183 224 230 234 273 269 305 286 309 246 228 217 236 246 248 237 246 250 267 286 204 234
122 133 27 91 34 129 41 270 219 285 160 270 191 214 159 172 219 302 31 151 223 310 156 223 274 174 222 193 193 316 290 255 249 282 254 258 262 257 245 260 245 233 232 227 235
99 90 101 79 71 106 220 233 222 173 265 230 219 160 232 243 202 230 248 250 221 291 17 212 244 131 242 175 145 311 233 236 229 216 250 252 258 277 275 252 250 249 227 234 244